Asuncion, Paraguay

6:59 AM -04 en Agosto 17, 2018 (GMT -0400)
Silvio Pettirossi International

Tiempo Historia de SGAS - Agosto, 2018

Change the Weather History Date:

Viernes, Agosto 10, 2018

  Actual Average Record
Temperature  
Temperatura media 55 ° F -  
Temperatura máxima 68 ° F 77 ° F 97 ° F (2017)
Temperatura mínima 42 ° F 59 ° F 41 ° F (2003)
Degree Days  
Grados día de calefacción 10    
Growing Degree Days 5 (Base 50)    
Moisture  
Punto de rocío 43 ° F    
Average Humidity 71    
Maximum Humidity 100    
Minimum Humidity 31    
Precipitación  
Precipitación 0.00 pul 0.10 pul - ()
Presión al nivel del mar  
Presión al nivel del mar 30.17 pul    
Viento  
Velocidad del viento 3 mph ()    
Velocidad máxima del viento 6 mph    
Max Gust Speed -    
Visibilidad 6.4 Millas    
Eventos      
Averages and records for this station are not official NWS values.
T = Trace of Precipitation, MM = Missing Value Source: Averaged Metar Reports

Daily Weather History Graph

Daily Weather History Graph

Search for Another Location

Airport or City:

Astronomía

Aug. 10, 2018 Salida Puesta
Hora real 6:21 AM -04 5:29 PM -04
Crepúsculo civil 5:57 AM -04 5:53 PM -04
Crepúsculo náutico 5:30 AM -04 6:20 PM -04
Crepúsculo astronómico 5:03 AM -04 6:47 PM -04
Luna 5:35 AM -04 (8/10) 4:48 PM -04 (8/10)
Horas de luz 11h 55m
Horas de luz
11h 07m
Creciente menguante, 1% of the Moon is Illuminated
Ago 10
Creciente menguante
Ago 11
Nueva
Ago 18
Cuarto creciente
Ago 26
Luna llena
Sep 2
Cuarto menguante

Hourly Weather History & Observations

Hora (-04) Temp. Vientos helados Punto de rocío Humedad Presión Visibilidad Wind Dir Velocidad del viento Velocidad de ráfagas Precip Eventos Condiciones
12:00 AM 44.6 ° F 42.2 ° F 41.0 ° F 87% 30.18 pul - SSO 4.6 mph - N/A   Despejado
1:00 AM 46.4 ° F 44.3 ° F 41.0 ° F 81% 30.18 pul - SSO 4.6 mph - N/A   Despejado
2:00 AM 47 ° F - 42 ° F 75% 30.19 pul 12 mi Sur 4.6 mph - -  
2:00 AM 46.4 ° F 44.3 ° F 41.0 ° F 81% 30.18 pul - Sur 4.6 mph - N/A   Despejado
3:00 AM 44.6 ° F 42.2 ° F 39.2 ° F 81% 30.15 pul - NNE 4.6 mph - N/A   Despejado
4:00 AM 42.8 ° F 40.1 ° F 39.2 ° F 87% 30.15 pul - Sur 4.6 mph - N/A   Despejado
5:00 AM 43 ° F - 39 ° F 81% 30.16 pul 12 mi Sur 4.6 mph - -  
5:00 AM 42.8 ° F 40.1 ° F 39.2 ° F 87% 30.15 pul - Sur 4.6 mph - N/A   Despejado
6:00 AM 42.8 ° F 40.1 ° F 39.2 ° F 87% 30.15 pul - SO 4.6 mph - N/A   Despejado
6:30 AM 41.0 ° F - 39.2 ° F 93% 30.18 pul 3.1 mi Sin viento Sin viento - N/A   Neblina
7:00 AM 41.0 ° F - 41.0 ° F 100% 30.18 pul 3.1 mi Sin viento Sin viento - N/A   Neblina
7:30 AM 44.6 ° F - 44.6 ° F 100% 30.18 pul 5.0 mi Sin viento Sin viento - N/A   Desconocido
8:00 AM 49 ° F - 47 ° F 92% 30.19 pul 6 mi Sin viento Sin viento - -   Neblina
8:00 AM 50.0 ° F - 46.4 ° F 87% 30.21 pul 5.6 mi Sin viento Sin viento - N/A   Desconocido
8:30 AM 55.4 ° F - 48.2 ° F 77% 30.21 pul - Este 2.3 mph - N/A   Despejado
9:00 AM 55.4 ° F - 46.4 ° F 72% 30.21 pul - Este 3.5 mph - N/A   Despejado
9:30 AM 57.2 ° F - 46.4 ° F 67% 30.24 pul - Variable 3.5 mph - N/A   Despejado
10:00 AM 59.0 ° F - 44.6 ° F 59% 30.24 pul 6.2 mi SE 5.8 mph - N/A   Nubes dispersas
11:00 AM 61 ° F - 44 ° F 42% 30.23 pul 12 mi Este 3.5 mph - -   Parcialmente nublado
11:00 AM 60.8 ° F - 44.6 ° F 55% 30.24 pul 6.2 mi Variable 3.5 mph - N/A   Nubes dispersas
12:00 PM 64.4 ° F - 44.6 ° F 49% 30.21 pul 6.2 mi Sin viento Sin viento - N/A   Parcialmente nublado
1:00 PM 64.4 ° F - 46.4 ° F 52% 30.18 pul - Variable 3.5 mph - N/A   Despejado
2:00 PM 66 ° F - 44 ° F 34% 30.15 pul 12 mi NO 2.3 mph - -   Despejado
2:00 PM 66.2 ° F - 44.6 ° F 46% 30.15 pul - Variable 2.3 mph - N/A   Despejado
3:00 PM 68.0 ° F - 42.8 ° F 40% 30.12 pul - Variable 3.5 mph - N/A   Despejado
4:00 PM 68.0 ° F - 42.8 ° F 40% 30.12 pul - Variable 2.3 mph - N/A   Despejado
5:00 PM 65 ° F - 42 ° F 31% 30.13 pul 12 mi Sur 4.6 mph - -  
5:00 PM 64.4 ° F - 44.6 ° F 49% 30.09 pul - Sur 4.6 mph - N/A   Despejado
7:00 PM 55.4 ° F - 44.6 ° F 67% 30.12 pul 3.7 mi Sin viento Sin viento - N/A   Desconocido
8:00 PM 54 ° F - 45 ° F 64% 30.15 pul 4 mi Sur 2.3 mph - -   Humo
8:00 PM 50.0 ° F - 44.6 ° F 82% 30.12 pul 3.7 mi Sur 2.3 mph - N/A   Desconocido
9:00 PM 48.2 ° F - 44.6 ° F 87% 30.12 pul 3.7 mi Sin viento Sin viento - N/A   Desconocido
10:00 PM 50.0 ° F - 44.6 ° F 82% 30.15 pul 3.7 mi Sin viento Sin viento - N/A   Desconocido
11:00 PM 49 ° F - 44 ° F 76% 30.18 pul 4 mi SSE 2.3 mph - -   Neblina
11:00 PM 48.2 ° F - 42.8 ° F 82% 30.15 pul 3.7 mi SSE 2.3 mph - N/A   Desconocido